Tracking 31011 objects as of 12-Jul-2025
HD Live streaming from Space Station
objects crossing your sky now

SLS DEB

Track SLS DEB now!
10-day predictions


NORAD ID: 55905
Int'l Code: 2022-156E
Perigee: 381.8 km
Apogee: 2,395.2 km
Inclination: 30.5 °
Period: 113.4 minutes
Semi major axis: 7759 km
RCS: Unknown
Launch date: November 16, 2022
Source: United States (US)
Launch site: AIR FORCE EASTERN TEST RANGE (AFETR)

Note: This is SATELLITE DEBRIS
Your satellite tracking list
Your tracking list is empty




NASA's NSSDC Master Catalog

Two Line Element Set (TLE):
1 55905U 22156E   25192.62449599  .00046972  00000-0  41190-2 0  9992
2 55905  30.4622 336.7140 1297394 338.3677  16.6585 12.70137850109228
Source of the keplerian elements: AFSPC